This is the latest recevied weather packets stored in our database for station/object KF7U. If no packets are shown the sender has not sent any weather packets the latest 10 day(s).
| Time | Temp. | Humidity | Pressure | Rain* | Wind** | Luminosity | Snow |
|---|---|---|---|---|---|---|---|
| 1777972654 | 15.56° C | 90% | 1011.2 hPa | 0 mm | - | 0 W/m² | - |
| 1777972355 | 15° C | 89% | 1011.2 hPa | 0 mm | - | 0 W/m² | - |
| 1777972055 | 15° C | 90% | 1011.2 hPa | 0 mm | - | 0 W/m² | - |
| 1777971754 | 15° C | 89% | 1011.2 hPa | 0 mm | - | 0 W/m² | - |
| 1777971455 | 15° C | 89% | 1011.5 hPa | 0 mm | - | 0 W/m² | - |
| 1777971154 | 15° C | 89% | 1011.5 hPa | 0 mm | - | 0 W/m² | - |
| 1777970856 | 15° C | 89% | 1011.5 hPa | 3.05 mm | - | 0 W/m² | - |
| 1777970554 | 15° C | 88% | 1011.5 hPa | 3.05 mm | - | 0 W/m² | - |
| 1777970254 | 15° C | 88% | 1011.9 hPa | 3.05 mm | - | 0 W/m² | - |
| 1777969955 | 15° C | 88% | 1011.9 hPa | 6.1 mm | - | 0 W/m² | - |
| 1777969655 | 15° C | 87% | 1011.9 hPa | 12.19 mm | - | 0 W/m² | - |
| 1777969355 | 15° C | 86% | 1011.9 hPa | 6.1 mm | - | 0 W/m² | - |
| 1777969056 | 15.56° C | 84% | 1011.9 hPa | 9.14 mm | - | 0 W/m² | - |
| 1777968755 | 15.56° C | 83% | 1012.2 hPa | 6.1 mm | - | 0 W/m² | - |
| 1777968454 | 15.56° C | 81% | 1011.9 hPa | 3.05 mm | - | 0 W/m² | - |
| 1777968155 | 16.11° C | 80% | 1011.9 hPa | 3.05 mm | - | 0 W/m² | - |
| 1777967855 | 16.11° C | 77% | 1011.9 hPa | 3.05 mm | - | 0 W/m² | - |
| 1777967558 | 16.11° C | 75% | 1011.5 hPa | 3.05 mm | - | 0 W/m² | - |
| 1777967256 | 16.67° C | 75% | 1011.5 hPa | 3.05 mm | - | 0 W/m² | - |
| 1777966954 | 16.67° C | 72% | 1011.5 hPa | 3.05 mm | - | 0 W/m² | - |
| 1777966654 | 17.22° C | 70% | 1011.5 hPa | 0 mm | - | 0 W/m² | - |
| 1777966355 | 17.22° C | 68% | 1011.5 hPa | 0 mm | - | 0 W/m² | - |
| 1777966055 | 17.78° C | 66% | 1011.5 hPa | 0 mm | - | 0 W/m² | - |
| 1777965757 | 18.33° C | 62% | 1011.5 hPa | 0 mm | - | 0 W/m² | - |
| 1777965456 | 18.89° C | 56% | 1011.5 hPa | 0 mm | - | 0 W/m² | - |
* Rain latest hour (hover to see other rain measurements)
** Current wind speed in m/s (hover to see current wind gust speed)